• In Deutschland
  • Länderverzeichnis
  • Für 7 Tage
  • Wassertemperatur
  • Satellitenkarten
  • Wetterkarte
  • Widgets
  • user-avatar
    Anmelden

    Stündliche Wetter Canillo

    Heute, 23 September, Samstag

    Zeit Temperatur Niederschläge Wind Luftdruck Luftfeuchtigkeit
    00:00 +6°C° 0 mm 0 m/S 622 mmHg 88%
    01:00 +6°C° 0,1 mm 0 m/S 622 mmHg 88%
    02:00 +7°C° 0,1 mm 1 m/S 621 mmHg 87%
    03:00 +7°C° 0,1 mm 1 m/S 621 mmHg 87%
    04:00 +7°C° 0,1 mm 1 m/S 621 mmHg 86%
    05:00 +7°C° 0,1 mm 1 m/S 621 mmHg 86%
    06:00 +7°C° 0 mm 1 m/S 621 mmHg 83%
    07:00 +9°C° 0 mm 1 m/S 622 mmHg 76%
    08:00 +11°C° 0 mm 1 m/S 623 mmHg 68%
    09:00 +13°C° 0 mm 1 m/S 624 mmHg 61%
    10:00 +14°C° 0,1 mm 1 m/S 624 mmHg 57%
    11:00 +15°C° 0,1 mm 1 m/S 624 mmHg 53%
    12:00 +16°C° 0 mm 2 m/S 624 mmHg 51%
    13:00 +16°C° 0,1 mm 2 m/S 624 mmHg 50%
    14:00 +16°C° 0,1 mm 2 m/S 624 mmHg 50%
    15:00 +16°C° 0,1 mm 1 m/S 624 mmHg 49%
    16:00 +14°C° 0 mm 1 m/S 623 mmHg 57%
    17:00 +12°C° 0 mm 1 m/S 622 mmHg 64%
    18:00 +10°C° 0 mm 1 m/S 621 mmHg 72%
    19:00 +10°C° 0 mm 1 m/S 621 mmHg 73%
    20:00 +9°C° 0 mm 1 m/S 621 mmHg 75%
    21:00 +8°C° 0 mm 1 m/S 621 mmHg 76%
    22:00 +8°C° 0 mm 1 m/S 621 mmHg 73%
    23:00 +8°C° 0 mm 1 m/S 621 mmHg 70%

    Morgen, 24 September, Sonntag

    Zeit Temperatur Niederschläge Wind Luftdruck Luftfeuchtigkeit
    00:00 +8°C° 0 mm 1 m/S 621 mmHg 67%
    01:00 +8°C° 0 mm 1 m/S 621 mmHg 64%
    02:00 +7°C° 0 mm 1 m/S 621 mmHg 61%
    03:00 +7°C° 0 mm 1 m/S 621 mmHg 58%
    04:00 +6°C° 0 mm 2 m/S 621 mmHg 56%
    05:00 +6°C° 0 mm 2 m/S 621 mmHg 54%
    06:00 +6°C° 0 mm 2 m/S 621 mmHg 52%
    07:00 +10°C° 0 mm 1 m/S 622 mmHg 47%
    08:00 +13°C° 0 mm 1 m/S 624 mmHg 41%
    09:00 +16°C° 0 mm 1 m/S 625 mmHg 36%
    10:00 +18°C° 0 mm 1 m/S 625 mmHg 34%
    11:00 +20°C° 0 mm 1 m/S 625 mmHg 32%
    12:00 +21°C° 0 mm 1 m/S 626 mmHg 30%
    13:00 +21°C° 0 mm 1 m/S 625 mmHg 32%
    14:00 +20°C° 0 mm 1 m/S 625 mmHg 33%
    15:00 +19°C° 0 mm 2 m/S 625 mmHg 34%
    16:00 +18°C° 0 mm 1 m/S 624 mmHg 43%
    17:00 +14°C° 0 mm 1 m/S 623 mmHg 52%
    18:00 +12°C° 0 mm 1 m/S 621 mmHg 61%
    19:00 +11°C° 0 mm 1 m/S 622 mmHg 62%
    20:00 +11°C° 0 mm 1 m/S 622 mmHg 63%
    21:00 +10°C° 0 mm 1 m/S 622 mmHg 64%
    22:00 +10°C° 0 mm 1 m/S 621 mmHg 64%
    23:00 +10°C° 0 mm 1 m/S 621 mmHg 64%

    übermorgen, 25 September, Montag

    Zeit Temperatur Niederschläge Wind Luftdruck Luftfeuchtigkeit
    00:00 +10°C° 0 mm 1 m/S 621 mmHg 63%
    01:00 +10°C° 0 mm 1 m/S 621 mmHg 64%
    02:00 +9°C° 0 mm 1 m/S 621 mmHg 65%
    03:00 +9°C° 0 mm 1 m/S 620 mmHg 66%
    04:00 +9°C° 0 mm 1 m/S 620 mmHg 67%
    05:00 +9°C° 0 mm 1 m/S 620 mmHg 68%
    06:00 +8°C° 0 mm 1 m/S 620 mmHg 69%
    07:00 +11°C° 0 mm 1 m/S 622 mmHg 64%
    08:00 +13°C° 0 mm 1 m/S 623 mmHg 59%
    09:00 +15°C° 0 mm 1 m/S 624 mmHg 53%
    10:00 +16°C° 0,2 mm 2 m/S 624 mmHg 53%
    11:00 +16°C° 0,2 mm 2 m/S 624 mmHg 53%
    12:00 +17°C° 0,2 mm 2 m/S 624 mmHg 52%
    13:00 +16°C° 0,4 mm 2 m/S 624 mmHg 57%
    14:00 +15°C° 0,4 mm 2 m/S 623 mmHg 62%
    15:00 +14°C° 0,4 mm 2 m/S 623 mmHg 66%
    16:00 +13°C° 0,5 mm 2 m/S 622 mmHg 73%
    17:00 +12°C° 0,5 mm 2 m/S 622 mmHg 80%
    18:00 +10°C° 0,5 mm 2 m/S 622 mmHg 86%
    19:00 +9°C° 0,3 mm 2 m/S 622 mmHg 88%
    20:00 +9°C° 0,3 mm 2 m/S 622 mmHg 90%
    21:00 +8°C° 0,3 mm 2 m/S 622 mmHg 92%
    22:00 +8°C° 0,1 mm 2 m/S 622 mmHg 93%
    23:00 +9°C° 0,1 mm 1 m/S 622 mmHg 93%

    26 September, Dienstag

    Zeit Temperatur Niederschläge Wind Luftdruck Luftfeuchtigkeit
    00:00 +8°C° 0,1 mm 1 m/S 622 mmHg 94%
    01:00 +8°C° 0,1 mm 1 m/S 622 mmHg 95%
    02:00 +8°C° 0,1 mm 1 m/S 622 mmHg 95%
    03:00 +8°C° 0,1 mm 1 m/S 621 mmHg 96%
    04:00 +8°C° 0 mm 1 m/S 621 mmHg 96%
    05:00 +7°C° 0 mm 1 m/S 621 mmHg 96%
    06:00 +7°C° 0 mm 1 m/S 621 mmHg 96%
    07:00 +8°C° 0 mm 1 m/S 622 mmHg 90%
    08:00 +10°C° 0 mm 1 m/S 623 mmHg 84%
    09:00 +11°C° 0 mm 1 m/S 623 mmHg 78%
    10:00 +12°C° 0,1 mm 1 m/S 623 mmHg 74%
    11:00 +12°C° 0,1 mm 1 m/S 624 mmHg 70%
    12:00 +13°C° 0,1 mm 1 m/S 624 mmHg 65%
    13:00 +13°C° 0,1 mm 1 m/S 623 mmHg 65%
    14:00 +13°C° 0,1 mm 1 m/S 623 mmHg 65%
    15:00 +13°C° 0,1 mm 1 m/S 623 mmHg 65%
    16:00 +12°C° 0,1 mm 1 m/S 623 mmHg 70%
    17:00 +10°C° 0,1 mm 1 m/S 622 mmHg 75%
    18:00 +9°C° 0,1 mm 1 m/S 622 mmHg 80%
    19:00 +9°C° 0 mm 1 m/S 622 mmHg 83%
    20:00 +8°C° 0 mm 1 m/S 622 mmHg 85%
    21:00 +7°C° 0 mm 1 m/S 622 mmHg 87%
    22:00 +7°C° 0 mm 1 m/S 622 mmHg 88%
    23:00 +7°C° 0 mm 1 m/S 621 mmHg 89%

    27 September, Mittwoch

    Zeit Temperatur Niederschläge Wind Luftdruck Luftfeuchtigkeit
    00:00 +6°C° 0 mm 1 m/S 621 mmHg 89%
    01:00 +6°C° 0 mm 1 m/S 621 mmHg 89%
    02:00 +6°C° 0 mm 1 m/S 621 mmHg 89%
    03:00 +6°C° 0 mm 1 m/S 621 mmHg 89%
    04:00 +6°C° 0 mm 1 m/S 621 mmHg 88%
    05:00 +6°C° 0 mm 1 m/S 621 mmHg 87%
    06:00 +6°C° 0 mm 1 m/S 621 mmHg 87%
    07:00 +8°C° 0 mm 1 m/S 622 mmHg 77%
    08:00 +11°C° 0 mm 1 m/S 624 mmHg 67%
    09:00 +14°C° 0 mm 1 m/S 625 mmHg 57%
    10:00 +15°C° 0 mm 1 m/S 625 mmHg 52%
    11:00 +16°C° 0 mm 1 m/S 626 mmHg 47%
    12:00 +19°C° 0 mm 1 m/S 626 mmHg 41%
    13:00 +18°C° 0 mm 1 m/S 626 mmHg 42%
    14:00 +17°C° 0 mm 2 m/S 626 mmHg 44%
    15:00 +17°C° 0 mm 2 m/S 626 mmHg 45%
    16:00 +15°C° 0 mm 1 m/S 625 mmHg 54%
    17:00 +12°C° 0 mm 1 m/S 624 mmHg 64%
    18:00 +10°C° 0 mm 1 m/S 624 mmHg 73%
    19:00 +9°C° 0 mm 1 m/S 624 mmHg 75%
    20:00 +9°C° 0 mm 1 m/S 624 mmHg 78%
    21:00 +8°C° 0 mm 1 m/S 624 mmHg 80%
    22:00 +8°C° 0 mm 1 m/S 624 mmHg 78%
    23:00 +8°C° 0 mm 1 m/S 624 mmHg 76%

    28 September, Donnerstag

    Zeit Temperatur Niederschläge Wind Luftdruck Luftfeuchtigkeit
    00:00 +8°C° 0 mm 1 m/S 624 mmHg 74%
    01:00 +8°C° 0 mm 1 m/S 624 mmHg 70%
    02:00 +8°C° 0 mm 1 m/S 624 mmHg 66%
    03:00 +8°C° 0 mm 1 m/S 624 mmHg 62%
    04:00 +8°C° 0 mm 1 m/S 624 mmHg 59%
    05:00 +7°C° 0 mm 1 m/S 624 mmHg 55%
    06:00 +7°C° 0 mm 1 m/S 624 mmHg 52%
    07:00 +10°C° 0 mm 1 m/S 626 mmHg 48%
    08:00 +12°C° 0 mm 0 m/S 627 mmHg 44%
    09:00 +15°C° 0 mm 0 m/S 628 mmHg 40%
    10:00 +18°C° 0 mm 1 m/S 628 mmHg 39%
    11:00 +19°C° 0 mm 1 m/S 629 mmHg 37%
    12:00 +20°C° 0 mm 1 m/S 629 mmHg 36%
    13:00 +20°C° 0 mm 1 m/S 629 mmHg 38%
    14:00 +20°C° 0 mm 1 m/S 628 mmHg 39%
    15:00 +20°C° 0 mm 1 m/S 628 mmHg 41%
    16:00 +16°C° 0 mm 1 m/S 627 mmHg 51%
    17:00 +14°C° 0 mm 1 m/S 626 mmHg 61%
    18:00 +12°C° 0 mm 1 m/S 625 mmHg 70%
    19:00 +11°C° 0 mm 1 m/S 625 mmHg 74%
    20:00 +10°C° 0 mm 1 m/S 625 mmHg 77%
    21:00 +10°C° 0 mm 1 m/S 625 mmHg 80%
    22:00 +10°C° 0 mm 1 m/S 625 mmHg 80%
    23:00 +9°C° 0 mm 1 m/S 625 mmHg 80%
    Mehr zeigen